Weather History for Two Harbors, MN

Change the Weather History Date:

Wednesday, May 1, 2013

  Actual Average Record
Temperature  
Mean Temperature 41 °F -  
Max Temperature 50 °F 52 °F 84 °F (1957)
Min Temperature 32 °F 33 °F 22 °F (1966)
Degree Days  
Heating Degree Days 24    
Moisture  
Dew Point 25 °F    
Average Humidity 58    
Maximum Humidity 80    
Minimum Humidity 46    
Precipitation  
Precipitation 0.00 in - - ()
Sea Level Pressure  
Sea Level Pressure 30.23 in    
Wind  
Wind Speed 6 mph (WNW)    
Max Wind Speed 12 mph    
Max Gust Speed 18 mph    
Visibility 10 miles    
Events      
Averages and records for this station are not official NWS values.
T = Trace of Precipitation, MM = Missing Value Source: NWS Daily Summary

Daily Weather History Graph

Daily Weather History Graph

Search for Another Location

Airport:

Trip Planner

Search our weather history database for the weather conditions in past years. The results will help you decide how hot, cold, wet, or windy it might be!

Date:

Astronomy

May. 01, 2013 Rise Set
Actual Time 5:50 AM CDT 8:18 PM CDT
Civil Twilight 5:16 AM CDT 8:52 PM CDT
Nautical Twilight 4:34 AM CDT 9:34 PM CDT
Astronomical Twilight 3:45 AM CDT 10:24 PM CDT
Moon 1:28 AM CDT (5/1) 11:29 AM CDT (5/1)
Length of Visible Light 15h 35m
Length of Day
14h 27m
Waning Gibbous, 59% of the Moon is Illuminated
May 1
Waning Gibbous
May 2
Last Quarter
May 9
New
May 17
First Quarter
May 24
Full

Hourly Weather History & Observations

Time (CDT) Temp. Windchill Dew Point Humidity Pressure Visibility Wind Dir Wind Speed Gust Speed Precip Events Conditions
12:11 AM 50.0 °F - 33.8 °F 54% 29.85 in 10.0 mi WNW 9.2 mph 16.1 mph N/A   Mostly Cloudy
12:51 AM 48.2 °F - 33.8 °F 58% 29.89 in 10.0 mi West 8.1 mph 16.1 mph N/A   Scattered Clouds
1:11 AM 48.2 °F - 33.8 °F 58% 29.90 in 10.0 mi West 6.9 mph - N/A   Scattered Clouds
1:31 AM 46.4 °F 45.2 °F 33.8 °F 62% 29.91 in 10.0 mi WSW 3.5 mph - N/A   Scattered Clouds
1:51 AM 46.4 °F 42.4 °F 32.0 °F 57% 29.94 in 10.0 mi West 8.1 mph - N/A   Overcast
2:11 AM 46.4 °F 42.9 °F 32.0 °F 57% 29.94 in 10.0 mi West 6.9 mph - N/A   Overcast
2:31 AM 44.6 °F 42.2 °F 32.0 °F 61% 29.96 in 10.0 mi West 4.6 mph - N/A   Overcast
2:51 AM 44.6 °F 40.7 °F 32.0 °F 61% 29.96 in 10.0 mi West 6.9 mph - N/A   Mostly Cloudy
3:11 AM 42.8 °F 38.6 °F 30.2 °F 61% 29.97 in 10.0 mi West 6.9 mph 18.4 mph N/A   Overcast
3:32 AM 42.8 °F 38.0 °F 30.2 °F 61% 29.98 in 10.0 mi WNW 8.1 mph 16.1 mph N/A   Mostly Cloudy
3:51 AM 42.8 °F 38.6 °F 30.2 °F 61% 29.98 in 10.0 mi WNW 6.9 mph - N/A   Scattered Clouds
4:11 AM 41.0 °F 36.4 °F 30.2 °F 65% 30.00 in 10.0 mi West 6.9 mph 16.1 mph N/A   Scattered Clouds
4:32 AM 39.2 °F 33.0 °F 28.4 °F 65% 30.00 in 10.0 mi West 9.2 mph - N/A   Mostly Cloudy
4:51 AM 39.2 °F 33.6 °F 28.4 °F 65% 30.01 in 10.0 mi West 8.1 mph 16.1 mph N/A   Scattered Clouds
5:11 AM 39.2 °F 35.9 °F 28.4 °F 65% 30.02 in 10.0 mi West 4.6 mph - N/A   Clear
5:32 AM 37.4 °F 33.8 °F 26.6 °F 65% 30.03 in - West 4.6 mph - N/A   Clear
5:51 AM 37.4 °F 31.4 °F 26.6 °F 65% 30.07 in 10.0 mi WSW 8.1 mph - N/A   Clear
6:11 AM 37.4 °F 33.8 °F 26.6 °F 65% 30.09 in 10.0 mi West 4.6 mph - N/A   Scattered Clouds
6:32 AM 37.4 °F 34.9 °F 26.6 °F 65% 30.10 in 10.0 mi West 3.5 mph - N/A   Scattered Clouds
6:51 AM 32.0 °F 25.6 °F 26.6 °F 80% 30.10 in 10.0 mi West 6.9 mph - N/A   Mostly Cloudy
7:11 AM 37.4 °F 32.8 °F 26.6 °F 65% 30.11 in 10.0 mi West 5.8 mph - N/A   Mostly Cloudy
7:32 AM 37.4 °F 33.8 °F 26.6 °F 65% 30.13 in 10.0 mi WNW 4.6 mph - N/A   Scattered Clouds
7:51 AM 35.6 °F 29.2 °F 26.6 °F 70% 30.16 in 10.0 mi West 8.1 mph - N/A   Scattered Clouds
8:11 AM 35.6 °F - 26.6 °F 70% 30.17 in 10.0 mi Calm Calm - N/A   Mostly Cloudy
8:31 AM 35.6 °F 29.9 °F 24.8 °F 65% 30.20 in 10.0 mi West 6.9 mph - N/A   Mostly Cloudy
8:51 AM 35.6 °F 29.9 °F 24.8 °F 65% 30.22 in 10.0 mi West 6.9 mph - N/A   Mostly Cloudy
9:11 AM 33.8 °F 25.3 °F 21.2 °F 60% 30.22 in 10.0 mi West 11.5 mph 17.3 mph N/A   Mostly Cloudy
9:31 AM 33.8 °F 29.6 °F 21.2 °F 60% 30.22 in 10.0 mi West 4.6 mph - N/A   Scattered Clouds
9:51 AM 33.8 °F 27.0 °F 21.2 °F 60% 30.22 in 10.0 mi West 8.1 mph - N/A   Scattered Clouds
10:11 AM 33.8 °F 26.4 °F 21.2 °F 60% 30.22 in 10.0 mi West 9.2 mph - N/A   Scattered Clouds
10:31 AM 33.8 °F 28.6 °F 21.2 °F 60% 30.22 in 10.0 mi WNW 5.8 mph - N/A   Scattered Clouds
10:51 AM 35.6 °F 29.9 °F 21.2 °F 56% 30.23 in 10.0 mi WNW 6.9 mph - N/A   Scattered Clouds
11:11 AM 35.6 °F 31.7 °F 23.0 °F 60% 30.24 in 10.0 mi West 4.6 mph - N/A   Clear
11:31 AM 35.6 °F 29.9 °F 23.0 °F 60% 30.24 in 10.0 mi West 6.9 mph - N/A   Clear
11:52 AM 37.4 °F 34.9 °F 23.0 °F 56% 30.25 in 10.0 mi WNW 3.5 mph - N/A   Scattered Clouds
12:11 PM 37.4 °F 31.4 °F 23.0 °F 56% 30.25 in 10.0 mi West 8.1 mph - N/A   Clear
12:31 PM 37.4 °F 32.1 °F 23.0 °F 56% 30.27 in 10.0 mi WNW 6.9 mph - N/A   Scattered Clouds
12:52 PM 39.2 °F 33.0 °F 23.0 °F 52% 30.27 in 10.0 mi West 9.2 mph - N/A   Clear
1:11 PM 39.2 °F 35.0 °F 23.0 °F 52% 30.28 in 10.0 mi West 5.8 mph - N/A   Clear
1:31 PM 39.2 °F 35.0 °F 23.0 °F 52% 30.28 in 10.0 mi NW 5.8 mph - N/A   Clear
1:52 PM 39.2 °F 35.0 °F 23.0 °F 52% 30.28 in 10.0 mi WNW 5.8 mph - N/A   Scattered Clouds
2:11 PM 39.2 °F 37.0 °F 23.0 °F 52% 30.28 in 10.0 mi West 3.5 mph - N/A   Mostly Cloudy
2:31 PM 41.0 °F 39.0 °F 24.8 °F 53% 30.29 in 10.0 mi NNW 3.5 mph - N/A   Scattered Clouds
2:52 PM 41.0 °F 36.4 °F 24.8 °F 53% 30.30 in 10.0 mi West 6.9 mph - N/A   Scattered Clouds
3:11 PM 42.8 °F 39.3 °F 23.0 °F 46% 30.31 in 10.0 mi NNW 5.8 mph - N/A   Mostly Cloudy
3:31 PM 42.8 °F 41.1 °F 24.8 °F 49% 30.31 in 10.0 mi NNW 3.5 mph - N/A   Mostly Cloudy
3:51 PM 42.8 °F 38.6 °F 24.8 °F 49% 30.32 in 10.0 mi WNW 6.9 mph - N/A   Mostly Cloudy
4:11 PM 42.8 °F 40.1 °F 24.8 °F 49% 30.33 in 10.0 mi WNW 4.6 mph - N/A   Scattered Clouds
4:31 PM 41.0 °F 37.1 °F 24.8 °F 53% 30.34 in 10.0 mi NW 5.8 mph - N/A   Scattered Clouds
4:51 PM 41.0 °F 36.4 °F 24.8 °F 53% 30.35 in 10.0 mi NNW 6.9 mph - N/A   Clear
5:11 PM 41.0 °F 36.4 °F 24.8 °F 53% 30.36 in 10.0 mi NW 6.9 mph - N/A   Scattered Clouds
5:31 PM 39.2 °F 33.6 °F 23.0 °F 52% 30.37 in 10.0 mi NW 8.1 mph - N/A   Scattered Clouds
5:51 PM 39.2 °F 35.0 °F 23.0 °F 52% 30.38 in 10.0 mi WNW 5.8 mph - N/A   Scattered Clouds
6:11 PM 39.2 °F 35.9 °F 23.0 °F 52% 30.40 in 10.0 mi NNW 4.6 mph - N/A   Clear
6:31 PM 39.2 °F 35.9 °F 23.0 °F 52% 30.41 in 10.0 mi NNW 4.6 mph - N/A   Scattered Clouds
6:51 PM 37.4 °F 32.8 °F 23.0 °F 56% 30.41 in 10.0 mi NW 5.8 mph - N/A   Clear
7:11 PM 37.4 °F 31.4 °F 23.0 °F 56% 30.41 in 10.0 mi NW 8.1 mph - N/A   Scattered Clouds
7:31 PM 37.4 °F 32.8 °F 21.2 °F 52% 30.41 in 10.0 mi NW 5.8 mph - N/A   Scattered Clouds
7:51 PM 37.4 °F 32.8 °F 21.2 °F 52% 30.42 in 10.0 mi North 5.8 mph - N/A   Mostly Cloudy
8:11 PM 37.4 °F 32.8 °F 21.2 °F 52% 30.43 in 10.0 mi NNW 5.8 mph - N/A   Mostly Cloudy
8:31 PM 35.6 °F 32.8 °F 21.2 °F 56% 30.44 in 10.0 mi NNW 3.5 mph - N/A   Mostly Cloudy
8:51 PM 35.6 °F - 21.2 °F 56% 30.45 in 10.0 mi Calm Calm - N/A   Mostly Cloudy
9:11 PM 35.6 °F 32.8 °F 21.2 °F 56% 30.46 in 10.0 mi NW 3.5 mph - N/A   Scattered Clouds
9:32 PM 35.6 °F 32.8 °F 21.2 °F 56% 30.46 in 10.0 mi North 3.5 mph - N/A   Scattered Clouds
9:51 PM 35.6 °F - 21.2 °F 56% 30.46 in 10.0 mi Calm Calm - N/A   Scattered Clouds
10:31 PM 35.6 °F 31.7 °F 21.2 °F 56% 30.46 in 10.0 mi North 4.6 mph - N/A   Mostly Cloudy
10:51 PM 33.8 °F 29.6 °F 21.2 °F 60% 30.47 in 10.0 mi North 4.6 mph - N/A   Mostly Cloudy
11:12 PM 33.8 °F - 21.2 °F 60% 30.47 in 10.0 mi Calm Calm - N/A   Mostly Cloudy
11:31 PM 33.8 °F 28.6 °F 21.2 °F 60% 30.47 in 10.0 mi North 5.8 mph - N/A   Mostly Cloudy
11:51 PM 33.8 °F 29.6 °F 21.2 °F 60% 30.48 in 10.0 mi North 4.6 mph - N/A   Mostly Cloudy